Regional Weather Roundup
Issued by NWS

Home | Current Version | Previous Version | Text Only | Print | Product List | Glossary On
Versions: 1 2 3 4 5 6 7 8 9 10 11 12 13 14 15 16 17 18 19 20 21 22 23 24 25 26 27 28 29 30 31 32 33 34 35 36 37 38 39 40 41 42 43 44 45 46 47 48 49 50
366
ASUS46 KSTO 300615
RWRCA

NORTHERN AND CENTRAL CA REGIONAL WEATHER ROUNDUP
NATIONAL WEATHER SERVICE SACRAMENTO CA
1100 PM PDT THU SEP 29 2016

NOTE: FAIR INDICATES FEW OR NO CLOUDS BELOW 12,000 FEET WITH NO
SIGNIFICANT WEATHER AND/OR OBSTRUCTIONS TO VISIBILITY.

CAZ001-003-300700-
NORTHWEST AREA

CITY           SKY/WX    TMP DP  RH WIND       PRES   REMARKS
CRESCENT CITY  CLOUDY    53  49  86 S7        30.10S
UKIAH          CLEAR     58  34  40 CALM      30.06R
$$

CAZ006-505>513-300700-
BAY AREA

CITY           SKY/WX    TMP DP  RH WIND       PRES   REMARKS
SANTA ROSA     CLOUDY    53  50  89 SE3       30.07R
SAN RAFAEL     N/A       55  MM  MM MISG
NAPA           CLEAR     53  49  86 W7        30.07R
CONCORD        CLEAR     58  47  66 S8        30.06R
OAKLAND CITY   N/A       55  MM  MM MISG
OAKLAND        CLOUDY    56  52  86 W16       30.10R
SAN FRAN CITY  N/A       53  MM  97 MISG
SAN FRAN ARPT  CLOUDY    55  50  83 W16G23    30.10R
LIVERMORE      CLEAR     55  49  80 NW14      30.06R
HAYWARD        CLOUDY    57  49  74 N8        30.10R
REDWOOD CITY   N/A       55  MM  79 MISG
MOFFETT ARPT   MOCLDY    57  50  77 NW5       30.10R
SAN JOSE ARPT  PTCLDY    57  52  83 NW9       30.09R
$$
CAZ034-037-514>518-300700-
CENTRAL COAST

CITY           SKY/WX    TMP DP  RH WIND       PRES   REMARKS
WATSONVILLE    CLEAR     53  52  96 CALM      30.09S
SALINAS        MOCLDY    55  51  86 W8        30.08S
MONTEREY       PTCLDY    53  50  89 SW5       30.10R
SAN LUIS OBISP FOG       55  53  93 CALM      30.06S VSB 1
SANTA MARIA    FOG       55  55 100 W3        30.07S VSB 1/2
$$
CAZ015-016-300700-
NORTHERN SACRAMENTO VALLEY

CITY           SKY/WX    TMP DP  RH WIND       PRES   REMARKS
REDDING        CLEAR     69  51  52 NE3       29.95S
RED BLUFF      CLEAR     72  48  42 S9        29.96R
OROVILLE       CLEAR     69  44  40 S10       29.99R
$$
CAZ016>018-300700-
SOUTHERN SACRAMENTO VALLEY

CITY           SKY/WX    TMP DP  RH WIND       PRES   REMARKS
AUBURN         CLEAR     70  36  28 SE8       30.06S
BEALE AFB      CLEAR     60  41  49 S6        29.97R
LINCOLN        FAIR      64  37  36 S9        29.99R
MARYSVILLE     CLEAR     64  47  53 SE8       29.99R
SAC INTL ARPT  CLEAR     60  48  64 S10       29.99R
MATHER AIRPORT CLEAR     59  41  51 S8        30.01S
DOWNTOWN SAC   N/A       62  MM  MM MISG
SAC EXEC ARPT  CLEAR     60  46  59 S8        30.01R
VACAVILLE      CLEAR     63  44  50 SW10      29.99S
TRAVIS AFB     CLEAR     55  49  82 SW28      29.99S
$$
CAZ019>021-300700-
SAN JOAQUIN VALLEY

CITY           SKY/WX    TMP DP  RH WIND       PRES   REMARKS
STOCKTON       CLEAR     63  38  39 NW5       30.02R
MODESTO        CLEAR     71  38  29 N3        30.01S
MERCED         CLEAR     68  38  33 NW6       30.01R
LEMOORE        CLEAR     75  42  30 NW14      30.01R
FRESNO         CLEAR     74  48  39 NW8       30.00R
HANFORD        CLEAR     75  49  39 NW10      30.01R
PORTERVILLE    CLEAR     71  50  47 SE7       30.02R
BAKERSFIELD    CLEAR     81  43  26 N14       30.00S
$$
CAZ011-012-071-300700-
NORTHERN MOUNTAINS

CITY           SKY/WX    TMP DP  RH WIND       PRES   REMARKS
YREKA          CLEAR     59  26  28 NE7       30.03S
MOUNT SHASTA   CLEAR     63  45  51 CALM      30.08S
ALTURAS        CLEAR     52  37  56 CALM      30.13R
$$
CAZ011-012-071-300700-
SIERRA NEVADA MTNS

CITY           SKY/WX    TMP DP  RH WIND       PRES   REMARKS
BLUE CANYON    CLEAR     60  36  40 SE6       30.24F
TRUCKEE        CLEAR     46  32  57 CALM      30.26F
TAHOE VLY ARPT CLEAR     49  35  58 CALM      30.28S
MAMMOTH LAKES  FAIR      52  33  49 E3        30.36R
$$




USA.gov is the U.S. government's official web portal to all federal, state and local government web resources and services.